Content
SEND FEEDBACK

Daily
Averages
Monthly
Summary
Canada

HAMILTON, ONTARIO


Home > North America > Canada > Ontario
Elevation: 776 feet     Latitude: 43 10N     Longitude: 079 55W

WEATHER
 
SELECT A DAY
Number of Records: 167,461;   Date Range: 1/1/95 - 7/27/14
 
SHARE

PRINT THIS DATA

[ ← Previous Day ]
WEATHER ALMANAC - FEBRUARY 13, 2013
[ Next Day → ]
[ °C ]   °F
Weather ElementAverageHighLow
Temperature27.8 °F32 °F (3:00 pm)21.2 °F (11:00 pm)
Dewpoint19.4 °F24 °F (1:00 am)17.6 °F (7:00 am)
Humidity69.5 %86 % (11:00 pm)51 % (1:00 pm)
Barometer29.83 in29.91 in (1:00 am)29.76 in (3:00 pm)
Wind Speed5.2 mph9.2 mph (3:00 pm)
Weather ElementAverage
Visibility15.2 mi
Wind DirectionWSW (244.4 °)

Weather ElementTotal
Precipitation---
Heating Degree Days38.4 (Base 65)
Averaged from 27 records on February 13, 2013
WEATHER CONDITIONS BREAKOUT
WIND DIRECTION BREAKOUT
WEATHER BY HOUR - FEBRUARY 13, 2013
[ °C ]   °F
Local TimeTemperatureDewpointHumidityBarometerVisibilityWind DirectionWind SpeedGust SpeedPrecipitationEventsConditions
1:00 AM29.0 °F24.0 °F72 %29.91 in15.0 miSW (220°)5.8 mphSnowLight Snow Showers
1:00 AM28.4 °F23.0 °F80 %29.91 in15.0 miSW (220°)5.8 mphSnowLight Snow Showers
2:00 AM28.4 °F23.0 °F80 %29.90 in15.0 miSW (220°)4.6 mphSnowLight Snow Showers
3:00 AM28.4 °F23.0 °F80 %29.89 in15.0 miSW (230°)4.6 mphSnowLight Snow Showers
4:00 AM28.4 °F23.0 °F80 %29.87 in20.0 miSW (230°)4.6 mphOvercast
5:00 AM28.4 °F19.4 °F69 %29.88 in15.0 miWNW (290°)6.9 mphOvercast
6:00 AM26.6 °F19.4 °F74 %29.88 in15.0 miWNW (290°)8.1 mphOvercast
7:00 AM27.0 °F18.0 °F59 %29.88 in15.0 miWNW (300°)6.9 mphPartly Cloudy
7:00 AM26.6 °F17.6 °F69 %29.88 in15.0 miWNW (300°)6.9 mphOvercast
8:00 AM26.6 °F17.6 °F69 %29.88 in15.0 miWNW (290°)6.9 mphOvercast
9:00 AM26.6 °F17.6 °F69 %29.86 in15.0 miWest (280°)6.9 mphMostly Cloudy
10:00 AM28.4 °F17.6 °F64 %29.85 inWest (280°)6.9 mphMostly Cloudy
11:00 AM28.4 °F17.6 °F64 %29.83 in15.0 miSSW (210°)5.8 mphMostly Cloudy
12:00 PM30.2 °F19.4 °F64 %29.81 in15.0 miSSW (200°)3.5 mphPartly Cloudy
1:00 PM30.0 °F19.0 °F51 %29.81 in15.0 miSW (230°)5.8 mphScattered Clouds
1:00 PM30.2 °F19.4 °F64 %29.81 in15.0 miWSW (250°)5.8 mphPartly Cloudy
2:00 PM30.2 °F19.4 °F64 %29.77 in15.0 miWNW (290°)4.6 mphPartly Cloudy
3:00 PM32.0 °F19.4 °F60 %29.76 in15.0 miWSW (240°)9.2 mphPartly Cloudy
4:00 PM32.0 °F19.4 °F60 %29.77 in15.0 miWSW (240°)4.6 mphScattered Clouds
5:00 PM30.2 °F19.4 °F64 %29.77 in15.0 miWest (270°)6.9 mphScattered Clouds
6:00 PM28.4 °F17.6 °F64 %29.77 in15.0 miWest (280°)4.6 mphPartly Cloudy
7:00 PM28.0 °F19.0 °F57 %29.78 in15.0 miNW (310°)4.6 mph
7:00 PM26.6 °F19.4 °F74 %29.78 in15.0 miNW (310°)4.6 mphClear
8:00 PM24.8 °F19.4 °F80 %29.80 in15.0 miCalmClear
9:00 PM23.0 °F17.6 °F80 %29.81 in15.0 miWNW (300°)2.3 mphClear
10:00 PM23.0 °F17.6 °F80 %29.82 in15.0 miCalmPartly Cloudy
11:00 PM21.2 °F17.6 °F86 %29.83 in15.0 miNW (320°)2.3 mphPartly Cloudy
Hourly data recorded from CYHM, located miles away from Hamilton, Ontario







STORIES FROM OUR PARTNERS